World > North America > United States > California
Hourly regional weather for Pioneertown, CaliforniaPioneertown, California Regional Hourly Weather

Pioneertown, California Regional Weather

regional weather pioneertown, caHOURLY REGIONAL WEATHER FOR PIONEERTOWN, CA
Lat: 34.16N, Lon: 116.5W 
Web Search

Helpful Tip: Type the letters wx in the search engine next time you need to find us.

Feedback


°F Click to change Pioneertown hourly weather to Imperial units.Click to change Pioneertown hourly weather to Metric units. °C
Pioneertown Weather Map
UTC Time: 12/8/2021, 12:15
Your Time:

Pioneertown, CA Regional Weather

Expires:202112081300;;108243
ASUS46 KSGX 081210
RWRSGX

SAN DIEGO HOURLY WEATHER ROUNDUP
NATIONAL WEATHER SERVICE SAN DIEGO CA
400 AM PST WED DEC 08 2021

NOTE: "FAIR" INDICATES FEW OR NO CLOUDS BELOW 12,000 FEET WITH NO 
SIGNIFICANT WEATHER AND/OR OBSTRUCTIONS TO VISIBILITY.


CAZ042-043-060-061-PZZ750-775-081300-

GREATER SAN DIEGO AREA
  
CITY           SKY/WX    TMP DP  RH WIND       PRES   REMARKS
SAN DIEGO AP   MOCLDY    52  49  89 SE3       30.01F                  
BROWN FIELD    PTCLDY    52  48  86 S5        30.00F FOG              
MIRAMAR MCAS   MOCLDY    48  48 100 E6        30.00S                  
MONTGOMERY FLD PTCLDY    52  48  86 NE3       30.00S                  
GILLESPIE FLD  MOCLDY    48  46  93 NW5       30.00S                  
LEMON GROVE      N/A     51  49  91 CALM      29.98F                  

$$

NORTH SAN DIEGO COUNTY
  
CITY           SKY/WX    TMP DP  RH WIND       PRES   REMARKS
CAMP PENDLETON FOG      N/A N/A N/A CALM      30.01S VSB 3/4          
OCEANSIDE AP   PTCLDY    46  46 100 NE3       30.00S                  
OCEANSIDE HBR    N/A     51  48  89 NE7       30.06F                  
VISTA            N/A     47  43  84 CALM      29.99S                  
CARLSBAD       PTCLDY    51  47  86 E3        29.99S                  
ENCINITAS        N/A     49  48  94 CALM        N/A                   
LA JOLLA SCRIP   N/A     55  49  80 CALM      29.99F                  
FALLBROOK      FAIR      48  46  93 NE3       30.00F                  
ESCONDIDO        N/A     50  46  87 CALM      30.01S                  
SAN MARCOS       N/A     52  49  88 E1        30.03S                  
RANCHO BERNARD   N/A     49  46  90 CALM      30.00S                  
POWAY            N/A     46  44  93 CALM      30.03S                  

$$

EAST SAN DIEGO COUNTY
  
CITY           SKY/WX    TMP DP  RH WIND       PRES   REMARKS
RAMONA         PTCLDY    42  41  96 CALM      30.00S FOG              
SANTEE           N/A     48  46  93 CALM      29.97F                  
EL CAJON         N/A    N/A N/A N/A CALM      29.88F                  
ALPINE           N/A     46  45  95 CALM      30.20S                  

$$

ORANGE COUNTY AND THE LOS ANGELES BASIN
  
CITY           SKY/WX    TMP DP  RH WIND       PRES   REMARKS
JOHN WAYNE AP  CLEAR     53  48  83 CALM      30.00R                  
LAGUNA BEACH     N/A     49  48  94 NE2       29.99S                  
LAKE FOREST FR   N/A     49  44  80 E3        29.89R                  
SANTA ANA        N/A     51  49  94 CALM      30.00R                  
HUNTINGTON BCH   N/A     50  49  97 CALM      30.00R                  
LOS ALAMITOS   FAIR      48  48 100 CALM      29.99S                  
FULLERTON      PTCLDY    51  48  89 E6        29.99S                  
LONG BEACH     CLEAR     51  49  92 CALM      30.00S                  
L.A. AP        PTCLDY    53  50  89 E3        30.00S                  
L.A. DOWNTOWN  CLEAR     51  48  89 CALM      29.99S                  

$$

THE INLAND EMPIRE
  
CITY           SKY/WX    TMP DP  RH WIND       PRES   REMARKS
CORONA         PTCLDY    39  39 100 E3        30.01F FOG              
UPLAND AP      FAIR      48  43  81 CALM      29.99S                  
CHINO          PTCLDY    46  43  89 CALM      30.02R FOG              
ONTARIO        PTCLDY    48  44  86 VRB3      30.00R                  
SAN BERNARDINO FAIR      46  40  80 S3        30.01S                  
RIVERSIDE AP   MOCLDY    46  44  93 NE5       30.00S                  
MORENO VALLEY    N/A     46  46 100 CALM      29.94R                  
MARCH ARB      CLEAR     40  39  96 CALM      30.00R                  
HORSETHIEF CYN   N/A     46  42  85 S1        30.00S                  
PERRIS           N/A     44  42  93 CALM      30.00R                  
LAKE ELSINORE    N/A     43  40  90 CALM      29.96S                  
HEMET AP       FAIR      39 N/A N/A CALM      30.01R                  
FRENCH VALLEY  FAIR      43  43 100 N3        30.00F FOG              
TEMECULA         N/A     45  44  97 CALM      29.96S                  

$$

SAN BERNARDINO AND RIVERSIDE COUNTY MOUNTAINS
  
CITY           SKY/WX    TMP DP  RH WIND       PRES   REMARKS
BIG BEAR AP    CLEAR     25  23  93 CALM      30.07S                  
BIG BEAR LAKE    N/A     28  26  93 CALM      30.05S                  
WRIGHTWOOD       N/A     33  28  80 CALM      29.97S                  
ANGELUS OAKS     N/A     37  29  73 CALM        N/A                   
IDYLLWILD        N/A     34  33  94 CALM      29.95S                  
TORO PEAK        N/A     32  28  84 W22         N/A  WCI  19          

$$

SOUTHERN DESERT INCLUDING THE COACHELLA VALLEY
  
CITY           SKY/WX    TMP DP  RH WIND       PRES   REMARKS
PALM SPRINGS   CLEAR     56  42  59 NW7       29.98F                  
THOUSAND PALMS   N/A     51  39  63 NW2       29.92F                  
INDIO            N/A     54  44  69 W1        29.95F                  
THERMAL        CLEAR     46  41  82 CALM      29.95F                  
BORREGO AP     PTSUNNY   50  32  50 CALM      29.96F                  
OCOTILLO WELLS   N/A     58  38  46 CALM      29.89S                  
CANEBRAKE        N/A     55  35  46 CALM      29.92F                  
BLYTHE         MOCLDY    55  37  50 SW8       29.96F                  
IMPERIAL AP    MOCLDY    54  41  61 NW5       29.94F                  
EL CENTRO NAS  MOCLDY    51  39  63 NW7       29.96F                  
YUMA AZ        MOCLDY    58  41  53 CALM      29.94F                  

$$

UPPER DESERT
  
CITY           SKY/WX    TMP DP  RH WIND       PRES   REMARKS
VICTORVILLE AP CLEAR     41  37  87 SE6       30.05F                  
HESPERIA         N/A     43  36  77 SW3       29.84S                  
APPLE VALLEY     N/A     37  34  89 NW1       30.07R                  
PALMDALE       CLEAR     39  32  76 E3        30.02F                  
LANCASTER      CLEAR     40  32  73 W6        30.03F                  
EDWARDS AFB    CLEAR     39  32  74 S6        29.99F                  
DAGGETT        NOT AVBL                                               
29 PALMS N     CLEAR     45  39  79 N3        30.07S                  
29 PALMS JTNP    N/A     46  37  70 CALM      29.95S                  
NEEDLES        CLOUDY    59  42  53 CALM      29.97F                  

$$

REGIONAL REPORTS
  
CITY           SKY/WX    TMP DP  RH WIND       PRES   REMARKS
SANTA BARBARA  CLEAR     47  45  93 CALM      30.00S                  
SANDBERG       CLEAR     45  34  65 N7        30.05R                  
LAS VEGAS NV   MOCLDY    50  45  83 SW5       29.99F                  
PHOENIX AZ     MOCLDY    58  31  35 E7        29.95F                  
TIJUANA        PTCLDY    52  52 100 CALM      30.03F                  
ENSENADA NW      N/A     56  32  39 NE6       29.99F                  

$$

OFFSHORE ISLANDS
  
CITY           SKY/WX    TMP DP  RH WIND       PRES   REMARKS
CATALINA ARPT  CLEAR     52  50  93 CALM      30.00S                  
SAN CLEMENTE I CLOUDY    58  32  37 E7        30.00F                  
SAN NICOLAS IS CLOUDY    56  55  97 NE7       30.00R FOG              

$$

MARINE AND OFFSHORE BUOY REPORTS
  
STATION/POSITION SKY/WX   TEMP    WIND        PRES    VSBY  SWELL
                          AIR SEA DIR/SP/G                  HT/PER/DIR
                          (F)     (DEG/KT/KT) (MB)    (MI)  (FT/S/D)
TANNER BANKS               61 63  340/  4/  6 1014.6S         3/200/14
S CLEMENTE BASIN           62 63  260/  2/  4 1015.1R         3/270/11
SAN NICOLAS IS.               61                N/A           2/220/14
SO. S. ROSA ISLA           57                 1016.8          3/250/13
W. S. BARBARA CH              59  280/  2/  4 1015.6S         3/260/13
M. S. BARBARA CH           58 60  250/  8/ 10 1016.4R      
482
   2/260/12
S. MONICA BASIN                   340/  2/  4 1015.9R
S PEDRO CHANNEL               63                N/A           2/270/11
OCEANSIDE OFFSHR              62                N/A           2/210/14
TORREY PINES OTR              63                N/A           2/230/13
SAN DIEGO BAY                 62              1015.6
IMPERIAL BEACH             56 62                N/A           2/260/13

$$

  

SKY/WX - Weather  TMP - Temperature  DP - Dew Point  RH - Relative Humidity
WIND - Wind Direction/Speed PRES - Barometric Pressure VSB - Visibility
WCI - Wind Chill Index E13G22 Wind - East Wind 13 mph/Gusts of 22 mph